Hourly Weather Bolshie Izori

Today, 1 August, Sunday

Time Temperature Precipitation Wind Pressure Humidity
00:00 +16°C° 0 mm 2 mps 744 mmHg 83%
01:00 +16°C° 0 mm 2 mps 744 mmHg 83%
02:00 +16°C° 0 mm 2 mps 744 mmHg 83%
03:00 +16°C° 0 mm 2 mps 744 mmHg 82%
04:00 +16°C° 0 mm 2 mps 744 mmHg 81%
05:00 +16°C° 0 mm 2 mps 744 mmHg 81%
06:00 +17°C° 0.2 mm 3 mps 744 mmHg 83%
07:00 +17°C° 0.2 mm 3 mps 743 mmHg 85%
08:00 +18°C° 0.2 mm 3 mps 743 mmHg 87%
09:00 +19°C° 0.5 mm 3 mps 743 mmHg 85%
10:00 +20°C° 0.5 mm 3 mps 743 mmHg 84%
11:00 +21°C° 0.5 mm 3 mps 743 mmHg 83%
12:00 +24°C° 0.2 mm 3 mps 743 mmHg 69%
13:00 +27°C° 0.2 mm 3 mps 743 mmHg 54%
14:00 +29°C° 0.2 mm 4 mps 743 mmHg 39%
15:00 +28°C° 0 mm 4 mps 743 mmHg 39%
16:00 +28°C° 0 mm 4 mps 743 mmHg 39%
17:00 +28°C° 0 mm 4 mps 743 mmHg 39%
18:00 +25°C° 0 mm 4 mps 743 mmHg 46%
19:00 +22°C° 0 mm 3 mps 744 mmHg 54%
20:00 +20°C° 0 mm 2 mps 744 mmHg 61%
21:00 +19°C° 0 mm 2 mps 744 mmHg 63%
22:00 +19°C° 0 mm 2 mps 744 mmHg 66%
23:00 +18°C° 0 mm 2 mps 744 mmHg 68%

Tomorrow, 2 August, Monday

Time Temperature Precipitation Wind Pressure Humidity
00:00 +19°C° 0 mm 1 mps 744 mmHg 69%
01:00 +19°C° 0 mm 1 mps 744 mmHg 71%
02:00 +17°C° 0 mm 0 mps 744 mmHg 72%
03:00 +17°C° 0 mm 0 mps 744 mmHg 73%
04:00 +19°C° 0 mm 1 mps 744 mmHg 73%
05:00 +19°C° 0 mm 1 mps 744 mmHg 74%
06:00 +19°C° 0.1 mm 1 mps 744 mmHg 77%
07:00 +18°C° 0.1 mm 1 mps 743 mmHg 81%
08:00 +18°C° 0.1 mm 1 mps 743 mmHg 84%
09:00 +18°C° 1.2 mm 1 mps 743 mmHg 88%
10:00 +16°C° 1.2 mm 1 mps 742 mmHg 93%
11:00 +16°C° 1.2 mm 2 mps 742 mmHg 97%
12:00 +17°C° 1.8 mm 2 mps 741 mmHg 97%
13:00 +18°C° 1.8 mm 1 mps 741 mmHg 98%
14:00 +19°C° 1.8 mm 1 mps 740 mmHg 98%
15:00 +18°C° 0.2 mm 2 mps 740 mmHg 97%
16:00 +18°C° 0.2 mm 2 mps 740 mmHg 95%
17:00 +18°C° 0.2 mm 3 mps 740 mmHg 94%
18:00 +18°C° 0.1 mm 3 mps 740 mmHg 95%
19:00 +17°C° 0.1 mm 2 mps 740 mmHg 96%
20:00 +16°C° 0.1 mm 2 mps 740 mmHg 97%
21:00 +16°C° 0.2 mm 2 mps 741 mmHg 98%
22:00 +16°C° 0.2 mm 2 mps 741 mmHg 98%
23:00 +16°C° 0.2 mm 2 mps 741 mmHg 98%

Day after tomorrow, 3 August, Tuesday

Time Temperature Precipitation Wind Pressure Humidity
00:00 +15°C° 0 mm 2 mps 741 mmHg 98%
01:00 +15°C° 0 mm 2 mps 741 mmHg 98%
02:00 +15°C° 0 mm 2 mps 742 mmHg 98%
03:00 +15°C° 0 mm 2 mps 742 mmHg 98%
04:00 +15°C° 0 mm 2 mps 742 mmHg 98%
05:00 +15°C° 0 mm 2 mps 742 mmHg 97%
06:00 +15°C° 0 mm 2 mps 743 mmHg 95%
07:00 +16°C° 0 mm 2 mps 743 mmHg 92%
08:00 +16°C° 0 mm 2 mps 744 mmHg 89%
09:00 +18°C° 0.1 mm 3 mps 744 mmHg 79%
10:00 +19°C° 0.1 mm 3 mps 744 mmHg 69%
11:00 +20°C° 0.1 mm 4 mps 745 mmHg 60%
12:00 +21°C° 0 mm 4 mps 745 mmHg 57%
13:00 +21°C° 0 mm 4 mps 745 mmHg 55%
14:00 +21°C° 0 mm 3 mps 745 mmHg 53%
15:00 +21°C° 0.1 mm 3 mps 745 mmHg 58%
16:00 +21°C° 0.1 mm 3 mps 745 mmHg 64%
17:00 +20°C° 0.1 mm 3 mps 745 mmHg 69%
18:00 +19°C° 0.4 mm 2 mps 746 mmHg 78%
19:00 +17°C° 0.4 mm 2 mps 746 mmHg 86%
20:00 +15°C° 0.4 mm 1 mps 747 mmHg 94%
21:00 +15°C° 0 mm 1 mps 747 mmHg 94%
22:00 +14°C° 0 mm 1 mps 747 mmHg 94%
23:00 +13°C° 0 mm 1 mps 748 mmHg 94%

4 August, Wednesday

Time Temperature Precipitation Wind Pressure Humidity
00:00 +13°C° 0 mm 1 mps 748 mmHg 94%
01:00 +12°C° 0 mm 1 mps 748 mmHg 94%
02:00 +12°C° 0 mm 1 mps 749 mmHg 94%
03:00 +11°C° 0 mm 0 mps 749 mmHg 93%
04:00 +11°C° 0 mm 0 mps 749 mmHg 92%
05:00 +10°C° 0 mm 0 mps 750 mmHg 91%
06:00 +13°C° 0 mm 1 mps 750 mmHg 85%
07:00 +15°C° 0 mm 1 mps 750 mmHg 78%
08:00 +18°C° 0 mm 1 mps 751 mmHg 72%
09:00 +19°C° 0 mm 1 mps 751 mmHg 62%
10:00 +21°C° 0 mm 1 mps 751 mmHg 53%
11:00 +23°C° 0 mm 1 mps 751 mmHg 44%
12:00 +23°C° 0 mm 2 mps 751 mmHg 41%
13:00 +24°C° 0 mm 2 mps 751 mmHg 38%
14:00 +24°C° 0 mm 2 mps 751 mmHg 36%
15:00 +24°C° 0 mm 2 mps 751 mmHg 37%
16:00 +24°C° 0 mm 1 mps 751 mmHg 38%
17:00 +23°C° 0 mm 1 mps 751 mmHg 39%
18:00 +21°C° 0 mm 1 mps 751 mmHg 46%
19:00 +19°C° 0 mm 1 mps 751 mmHg 53%
20:00 +16°C° 0 mm 1 mps 751 mmHg 59%
21:00 +15°C° 0 mm 1 mps 751 mmHg 60%
22:00 +15°C° 0 mm 1 mps 752 mmHg 61%
23:00 +14°C° 0 mm 1 mps 752 mmHg 62%

5 August, Thursday

Time Temperature Precipitation Wind Pressure Humidity
00:00 +14°C° 0 mm 2 mps 752 mmHg 62%
01:00 +14°C° 0 mm 2 mps 752 mmHg 63%
02:00 +14°C° 0 mm 2 mps 752 mmHg 64%
03:00 +14°C° 0 mm 2 mps 751 mmHg 67%
04:00 +14°C° 0 mm 2 mps 751 mmHg 69%
05:00 +14°C° 0 mm 2 mps 751 mmHg 71%
06:00 +15°C° 0 mm 2 mps 751 mmHg 70%
07:00 +17°C° 0 mm 2 mps 751 mmHg 69%
08:00 +19°C° 0 mm 3 mps 751 mmHg 68%
09:00 +18°C° 0.4 mm 3 mps 751 mmHg 74%
10:00 +18°C° 0.4 mm 3 mps 751 mmHg 79%
11:00 +18°C° 0.4 mm 3 mps 751 mmHg 84%
12:00 +18°C° 0.3 mm 3 mps 750 mmHg 86%
13:00 +17°C° 0.3 mm 3 mps 750 mmHg 88%
14:00 +16°C° 0.3 mm 3 mps 750 mmHg 89%
15:00 +16°C° 0.1 mm 3 mps 750 mmHg 91%
16:00 +16°C° 0.1 mm 3 mps 749 mmHg 92%
17:00 +14°C° 0.1 mm 3 mps 749 mmHg 93%
18:00 +14°C° 0 mm 3 mps 749 mmHg 94%
19:00 +14°C° 0 mm 3 mps 748 mmHg 94%
20:00 +14°C° 0 mm 3 mps 748 mmHg 95%
21:00 +14°C° 0 mm 3 mps 748 mmHg 95%
22:00 +14°C° 0 mm 3 mps 747 mmHg 95%
23:00 +16°C° 0 mm 3 mps 747 mmHg 95%

6 August, Friday

Time Temperature Precipitation Wind Pressure Humidity
00:00 +16°C° 0 mm 3 mps 747 mmHg 95%
01:00 +16°C° 0 mm 3 mps 746 mmHg 95%
02:00 +16°C° 0 mm 3 mps 746 mmHg 95%
03:00 +15°C° 0 mm 4 mps 745 mmHg 95%
04:00 +15°C° 0 mm 4 mps 745 mmHg 95%
05:00 +15°C° 0 mm 4 mps 744 mmHg 95%
06:00 +15°C° 0.8 mm 4 mps 743 mmHg 96%
07:00 +17°C° 0.8 mm 4 mps 742 mmHg 97%
08:00 +16°C° 0.8 mm 5 mps 742 mmHg 98%
09:00 +16°C° 1.6 mm 5 mps 741 mmHg 96%
10:00 +17°C° 1.6 mm 6 mps 741 mmHg 95%
11:00 +17°C° 1.6 mm 7 mps 740 mmHg 94%
12:00 +18°C° 0.3 mm 7 mps 740 mmHg 93%
13:00 +20°C° 0.3 mm 6 mps 740 mmHg 91%
14:00 +21°C° 0.3 mm 6 mps 740 mmHg 90%
15:00 +20°C° 0.5 mm 6 mps 740 mmHg 91%
16:00 +20°C° 0.5 mm 5 mps 740 mmHg 92%
17:00 +20°C° 0.5 mm 5 mps 741 mmHg 93%
18:00 +19°C° 0 mm 4 mps 741 mmHg 93%
19:00 +18°C° 0 mm 4 mps 741 mmHg 94%
20:00 +17°C° 0 mm 3 mps 742 mmHg 95%
21:00 +16°C° 0 mm 3 mps 742 mmHg 96%
22:00 +16°C° 0 mm 3 mps 742 mmHg 97%
23:00 +14°C° 0 mm 3 mps 742 mmHg 98%
Show more

We Need Your Consent

Meteoprog and our Service Providers may store and access personal data such as cookies, device identifiers or other similar technologies on your device and process such data to personalise content and ads, as well as provide social media features and to analyse the traffic.

  • Store and/or access information on your device

    Cookies, device identifiers or other information can be stored or accessed on your device for the purposes indicated above.

  • Personalised ads and content, ad and content measurement, audience insights, and products development

    Ads and content can be personalised based on a profile. More data can be added to better personalise ads and content. Ad and content performance can be measured. Insights about the audience who saw the ads and content can be derived. Such data can be used to develop or improve user’s experience, systems and software.

By clicking ‘I Agree’ you will allow the use of indicated cookies, device identifiers, web beacons or other similar technologies. Your settings can be changed in the browser on your device.

For certain purposes, legitimate interests may be relied on, rather than consent. You can read more about this in our Privacy and Cookie Policy.